Theta_e
281 281 280 278 278 279 279 277 278 277 278 278 278 279 282 279 278 278 283 281 280 283 286 288 288 289 290 290 290 291 290 288 284 282 284 286 288 288 288 288 288 288 288 289 289 289 289 287 288 288 288 288 288 289 289 289 289 290 289 289 289 289 289 289 290 290 290 290 289 289 289 288 288 289 289 288 288 287 287 287 287 287 287 286 285 284 284
279 281 279 278 278 277 278 279 280 279 278 279 280 281 282 282 282 284 284 283 283 286 288 289 290 291 291 291 291 291 290 291 290 287 286 288 289 289 289 289 289 288 288 288 288 288 287 287 287 287 288 288 288 289 289 288 289 289 288 289 289 289 289 290 290 290 290 289 289 289 288 288 289 289 288 288 287 287 287 287 287 286 286 285 285 285 284
276 279 277 276 276 276 277 278 278 280 281 279 279 281 282 282 281 283 283 282 282 288 290 290 292 292 292 290 290 290 290 290 289 288 287 288 288 288 288 288 288 288 287 287 287 286 287 287 287 287 288 288 288 287 288 288 289 289 288 288 288 289 289 290 290 289 288 288 288 288 288 288 288 287 287 286 286 286 286 285 285 285 285 284 284 284 284
269 266 272 271 271 272 272 273 277 279 278 276 279 278 281 280 280 281 280 279 280 286 290 290 289 289 289 289 289 289 289 288 287 286 286 286 287 287 287 287 287 287 287 287 286 286 287 286 286 286 287 288 286 288 288 288 289 287 287 288 288 288 289 288 288 288 287 287 286 287 286 287 286 286 285 285 285 285 285 284 284 284 284 285 285 284 284
267 272 269 270 270 267 265 270 278 280 280 281 281 281 280 282 284 281 277 280 286 288 289 286 285 285 286 285 284 285 285 285 284 285 285 286 286 286 287 287 288 288 288 288 287 286 286 286 286 286 287 287 288 289 288 288 286 286 287 287 288 288 287 287 287 286 286 286 286 286 286 286 285 285 285 285 285 285 285 285 284 284 284 284 284 284 284
262 262 263 266 271 271 274 280 282 282 281 281 279 280 282 283 283 283 285 286 287 286 286 285 286 287 285 283 283 284 286 287 287 285 285 286 287 287 287 287 287 288 288 287 287 286 286 286 286 286 285 287 289 288 287 285 286 287 287 287 287 287 287 287 286 286 286 286 286 286 285 285 284 284 285 285 286 286 285 284 284 284 284 284 284 284 284
265 265 271 275 271 272 278 277 277 281 283 283 281 282 282 283 283 284 284 285 286 287 288 288 288 288 284 283 284 287 287 285 286 288 289 288 288 288 288 287 287 287 287 286 285 285 285 285 285 283 284 284 286 285 285 286 286 286 286 287 286 287 287 286 286 286 286 286 286 286 285 285 284 285 285 286 285 285 285 285 284 284 284 284 284 284 283
264 266 261 260 272 272 276 276 278 279 279 279 279 280 282 282 283 283 282 285 286 287 287 288 289 285 283 282 285 287 289 289 287 287 288 288 288 287 288 287 287 287 286 285 285 286 286 284 284 283 285 283 284 286 284 286 285 286 286 286 287 286 286 286 286 286 286 286 286 286 285 284 284 285 285 285 285 284 284 284 284 284 284 284 284 283 283
269 266 270 275 278 279 281 281 278 278 279 277 279 276 282 283 285 284 284 285 285 286 286 287 287 282 283 281 286 289 289 288 287 288 289 289 289 288 288 287 287 288 285 284 285 284 285 285 285 284 283 284 285 284 284 284 284 285 285 286 286 286 286 286 285 285 285 286 285 285 285 284 284 285 285 284 284 284 283 283 283 283 283 283 283 283 283
275 266 267 266 266 271 276 281 286 285 285 284 283 281 281 280 283 286 286 284 285 285 285 285 281 281 283 281 283 288 285 283 285 286 288 288 288 287 287 286 284 284 283 283 282 283 284 284 283 283 283 284 283 284 284 284 284 284 284 286 286 285 284 284 284 283 284 285 285 284 284 284 285 285 285 285 284 284 284 283 283 283 283 283 282 282 282
267 267 266 269 266 275 277 280 281 283 283 281 277 277 278 279 285 284 283 284 284 285 285 283 281 281 278 280 284 288 288 283 281 283 284 285 286 286 285 284 284 284 284 283 283 282 282 284 285 283 284 284 284 284 284 283 284 285 285 285 285 285 284 284 284 285 285 285 286 285 285 285 285 285 285 285 284 283 283 283 283 282 281 281 281 281 281
266 267 264 271 271 274 277 278 276 277 279 281 280 270 274 282 286 287 284 284 285 285 284 281 281 282 279 282 286 288 288 287 282 283 284 283 282 281 281 280 281 281 282 282 283 283 283 283 283 283 283 282 283 284 284 282 283 284 284 285 285 285 285 285 285 285 285 285 285 285 285 285 284 284 284 283 282 282 281 281 281 280 280 280 280 280 280
272 274 273 272 276 280 281 280 277 278 280 283 275 272 282 279 280 285 286 285 286 285 283 282 282 283 288 290 285 281 281 284 284 282 282 282 281 281 281 282 285 282 282 281 282 281 280 281 281 281 281 282 282 282 281 282 282 282 283 283 283 283 283 283 283 283 283 284 284 284 284 284 284 283 283 282 282 281 281 280 280 280 280 279 279 280 280
273 273 272 274 278 280 284 279 283 281 282 271 274 284 281 282 283 282 284 285 285 284 285 283 285 288 287 287 284 283 283 283 283 283 282 281 280 281 281 281 281 281 281 281 281 281 281 281 280 281 281 283 282 281 281 282 282 283 282 282 282 282 282 282 282 282 282 282 283 284 282 282 282 282 281 281 281 280 279 279 279 279 278 278 278 278 278
264 264 271 268 270 276 289 283 280 281 280 283 287 281 280 281 283 282 281 283 286 284 284 284 285 286 285 282 283 283 282 281 282 281 280 280 280 280 280 281 281 280 281 281 280 280 280 280 280 281 282 281 280 281 279 278 280 281 280 281 281 280 280 281 280 280 280 280 281 281 281 280 280 281 279 278 278 278 278 277 277 277 277 277 276 276 275
272 271 270 272 279 280 286 285 282 283 286 288 285 286 287 282 282 283 285 283 284 283 285 285 283 283 283 282 281 281 281 280 280 280 280 280 280 280 280 280 279 279 280 280 280 278 278 278 278 279 280 280 279 278 276 276 277 278 279 278 278 278 277 277 277 277 277 278 278 278 278 279 278 278 277 276 276 276 276 276 275 275 275 274 274 274 274
276 276 278 281 277 281 286 288 286 288 289 290 283 285 287 287 285 283 284 287 284 282 283 283 283 282 280 282 282 280 281 281 280 281 282 280 279 279 279 278 279 279 280 280 278 276 275 274 274 273 275 276 275 273 273 274 274 275 276 276 276 275 275 274 274 273 273 274 273 273 273 276 276 275 274 273 273 272 273 273 274 274 275 274 274 274 273
282 285 284 279 278 279 284 287 286 283 287 287 286 283 285 284 284 283 285 283 283 281 280 281 281 281 282 281 281 280 279 280 281 279 278 277 277 277 277 276 277 278 278 277 275 273 272 272 271 271 271 271 270 271 272 272 273 274 274 273 273 272 271 271 271 269 271 272 271 271 272 273 275 275 275 274 274 272 272 272 273 273 273 274 274 275 275
279 278 285 283 283 280 282 286 287 286 282 283 284 286 286 286 284 281 280 280 281 280 279 281 282 283 281 280 281 281 281 281 281 278 277 276 275 275 274 274 275 276 275 274 272 271 270 270 270 269 269 269 269 269 270 271 271 271 271 271 271 271 270 271 270 271 272 272 272 273 272 272 272 273 274 274 273 273 272 273 274 275 275 275 274 274 273
280 281 284 278 282 283 282 284 285 285 287 287 286 285 284 283 282 282 283 281 282 281 281 282 282 283 283 281 282 282 282 281 278 277 277 276 274 274 272 272 272 272 271 271 270 269 268 268 268 268 267 267 267 268 269 269 270 270 270 270 269 269 269 269 269 269 269 271 272 271 271 271 271 272 272 273 273 274 274 275 274 274 274 274 274 274 273
281 283 284 281 280 284 284 281 282 286 287 287 286 287 286 285 284 284 283 283 285 285 286 283 282 282 283 282 281 281 280 276 277 276 274 273 272 272 271 270 269 269 269 268 268 267 267 267 267 266 266 266 266 267 267 268 269 269 270 268 268 268 268 269 269 269 269 269 269 269 270 270 270 271 270 271 272 272 273 274 273 273 273 273 274 274 274
279 280 278 280 279 281 285 286 286 285 285 285 285 286 285 284 284 285 284 284 282 282 281 280 281 282 282 280 281 280 276 275 274 273 273 272 271 270 270 268 267 266 266 266 266 266 266 266 265 265 265 265 265 266 267 267 268 268 269 269 268 268 268 268 268 268 268 268 268 269 268 268 268 269 273 274 274 271 269 274 275 276 277 272 273 273 273
280 281 278 284 286 285 286 285 282 283 281 280 281 282 283 283 282 280 280 281 282 281 276 275 277 277 277 277 276 274 273 271 271 271 271 270 270 269 269 267 267 266 266 265 265 264 265 264 264 263 263 264 263 264 266 266 267 267 268 268 268 268 267 267 268 267 267 267 267 267 268 267 267 267 266 270 274 274 273 274 274 275 276 276 276 275 273
284 285 284 281 283 284 283 281 278 275 275 277 277 277 275 275 275 275 276 275 276 276 273 273 273 274 274 274 274 272 271 270 270 270 269 269 269 268 268 267 266 265 265 264 264 263 264 263 263 262 262 262 262 263 265 265 266 266 266 266 266 266 266 266 267 267 266 267 266 266 266 267 267 266 266 266 267 272 273 272 273 274 275 276 276 276 276
283 281 272 276 278 280 279 277 275 274 273 275 275 274 272 273 272 272 272 272 272 273 273 271 271 272 271 272 271 271 269 269 269 268 268 268 267 267 267 266 265 265 264 264 263 263 262 262 262 262 261 261 262 262 263 264 265 265 265 265 265 265 266 266 266 266 265 265 265 265 265 265 265 266 265 265 265 265 268 272 273 273 273 274 274 275 276
271 271 274 276 277 278 277 278 277 272 271 272 272 273 271 272 271 270 270 270 270 270 270 270 269 270 270 269 269 268 268 267 267 268 267 266 266 266 265 264 264 264 263 263 262 262 261 261 261 261 261 261 260 261 262 263 264 264 264 264 264 264 264 264 264 264 265 264 263 263 264 264 264 263 263 263 262 263 264 265 267 269 271 272 272 273 273
269 269 273 277 278 276 275 273 273 273 271 272 271 271 271 270 270 269 269 269 268 268 268 269 269 269 268 268 267 267 266 267 267 266 266 265 264 264 264 264 263 262 262 261 262 262 261 261 261 261 260 261 260 261 262 262 263 263 263 263 263 264 264 264 263 263 263 263 263 262 263 262 262 262 262 263 263 262 262 262 263 263 264 265 268 270 270
266 266 268 271 272 272 272 273 271 271 270 269 270 270 271 270 269 268 268 268 267 267 267 267 266 267 267 268 267 266 265 264 263 264 264 264 264 264 264 263 263 262 261 261 261 261 261 260 260 259 259 260 260 261 261 261 262 262 262 262 262 262 262 262 262 262 262 262 263 262 261 261 262 262 262 262 262 262 262 261 261 261 262 262 262 265 269
263 264 266 267 268 271 272 273 271 269 267 268 269 269 269 268 268 267 266 267 267 266 265 265 265 265 264 264 265 263 263 263 262 262 262 263 263 264 264 263 262 261 260 260 260 260 260 259 259 258 259 260 259 260 260 261 261 261 261 261 262 262 262 261 261 261 261 261 261 262 262 261 260 260 260 261 261 261 261 261 260 259 258 258 261 262 265
261 262 264 265 269 270 269 268 267 266 266 266 266 267 268 267 265 266 266 266 266 264 264 264 263 263 263 262 263 262 261 261 261 261 261 261 261 262 263 263 262 261 260 259 258 258 258 259 258 258 259 259 259 260 259 260 260 260 260 260 261 261 261 261 260 260 260 259 260 260 259 259 258 258 258 258 258 259 260 259 260 259 258 258 261 260 261
260 262 263 267 265 267 267 266 266 265 265 265 265 264 265 266 264 264 264 264 264 264 264 262 262 262 262 261 262 262 262 261 261 260 260 260 260 260 260 261 259 258 258 258 258 258 258 258 258 258 259 259 259 259 259 259 259 259 259 259 259 261 261 261 261 260 259 259 259 258 258 258 258 258 257 258 258 258 259 259 259 259 258 258 258 259 260
259 262 265 262 262 263 264 265 263 263 262 262 262 261 262 262 262 262 262 262 262 262 262 262 262 262 262 262 262 262 261 261 260 260 260 259 259 259 259 258 258 259 258 258 258 258 257 257 257 258 259 259 259 258 258 258 258 257 257 258 258 258 259 260 259 259 259 258 258 258 258 258 257 257 257 257 257 257 258 258 258 258 257 258 258 259 259
257 260 259 259 258 259 260 261 261 259 261 258 259 260 260 262 261 261 261 261 261 261 261 260 261 261 261 261 261 261 260 260 260 260 259 259 259 259 259 258 258 257 257 258 258 258 258 257 257 258 258 258 258 258 258 257 257 257 257 257 256 257 258 258 259 258 258 258 257 257 257 257 257 256 256 257 257 257 256 256 257 257 257 257 257 257 258
255 255 257 256 257 256 257 257 260 259 259 260 259 258 259 260 260 260 260 260 259 259 259 259 259 259 259 259 259 259 259 259 258 258 258 259 258 259 259 259 258 257 257 256 256 257 257 257 257 257 258 258 257 257 257 257 256 256 257 257 256 256 256 256 257 257 256 256 257 256 256 256 255 255 256 255 256 256 256 255 255 256 255 256 256 256 258
256 256 257 256 256 257 257 258 257 258 258 257 257 257 258 258 258 259 259 258 257 258 258 258 258 258 258 257 257 257 257 256 257 257 258 258 258 258 258 258 258 257 257 256 255 255 257 257 257 257 257 257 256 256 257 256 256 256 256 256 256 256 256 256 256 256 255 255 255 255 255 255 254 255 255 254 254 254 254 254 254 254 254 254 254 255 255
255 254 255 255 255 255 255 256 257 256 256 255 255 256 255 256 256 256 256 257 258 258 258 258 257 257 256 256 255 256 255 256 256 257 257 258 258 258 257 257 256 255 255 255 256 255 255 257 257 257 256 256 255 255 256 256 256 255 255 255 255 255 255 255 255 255 255 255 254 254 253 254 254 254 253 253 252 252 253 253 253 253 253 253 253 254 254
256 253 254 254 254 254 254 254 255 255 255 255 254 254 254 255 255 255 256 256 257 257 257 257 257 256 255 255 255 255 255 255 255 256 257 257 257 257 256 255 255 255 254 252 254 255 254 256 256 256 255 254 254 254 255 256 255 255 254 254 254 254 254 253 254 254 253 253 253 252 253 253 252 253 253 252 252 253 253 252 253 253 253 253 253 253 253
255 255 254 254 254 253 253 254 254 254 254 254 255 255 254 254 254 254 255 255 255 256 256 256 256 256 256 256 255 254 254 254 254 255 255 256 256 255 255 255 253 254 252 253 255 253 254 256 255 254 254 254 254 253 254 256 255 254 253 253 253 253 253 253 252 253 253 252 253 252 251 252 252 251 252 252 252 252 252 252 252 252 252 252 252 252 252
253 255 255 255 254 253 253 254 254 253 254 252 253 254 255 254 254 254 254 254 255 255 254 255 255 254 254 254 254 254 254 253 253 253 254 255 256 254 254 254 253 254 253 255 254 254 255 255 254 253 253 253 253 253 254 255 255 253 252 252 252 252 252 252 252 252 252 252 252 252 252 252 252 251 251 251 252 252 252 252 252 252 252 251 251 250 251
253 253 254 255 254 254 253 253 253 253 253 254 253 252 254 254 254 254 253 253 253 255 254 254 254 253 253 253 253 253 254 254 253 252 253 254 254 255 254 254 254 252 254 255 254 254 254 254 253 252 252 252 252 252 253 254 254 252 252 251 251 251 251 252 251 251 251 251 251 252 251 251 251 251 251 251 251 251 251 250 250 250 250 248 247 248 247
253 253 253 254 254 254 254 253 253 253 253 252 253 253 254 253 253 253 253 252 253 253 253 254 252 252 253 252 252 252 253 254 253 251 253 253 252 254 254 251 254 252 253 254 253 253 253 252 252 251 251 251 251 253 252 253 252 251 251 251 251 250 250 250 251 251 250 250 250 250 250 250 250 250 250 249 249 248 248 248 248 246 246 246 247 246 246
253 253 252 253 254 254 254 254 254 253 253 253 252 253 253 254 253 252 253 253 253 253 253 253 254 252 252 253 253 252 253 253 253 252 253 252 251 252 252 252 254 251 254 253 253 252 251 251 251 251 251 251 251 252 252 252 251 250 250 250 250 250 250 250 250 249 250 249 249 248 248 248 247 247 247 246 246 246 246 246 245 244 244 245 246 246 246
253 252 252 252 254 254 254 254 254 253 253 254 253 252 252 253 253 253 253 253 253 253 252 252 252 252 252 252 252 251 252 253 252 251 252 252 253 253 253 252 253 253 253 252 252 251 251 251 251 250 251 251 251 251 251 250 250 249 249 249 249 249 248 248 248 248 247 246 246 245 244 244 243 244 245 245 245 244 245 245 245 245 245 245 245 245 245
252 252 253 252 252 254 253 253 254 254 252 253 254 252 252 252 253 253 252 252 252 252 252 251 252 252 252 252 251 251 251 252 251 251 251 251 253 253 253 250 251 253 253 252 251 251 251 251 250 251 251 251 251 251 250 249 248 248 247 247 247 246 246 246 246 245 244 244 244 243 243 244 244 243 242 244 244 244 243 245 244 244 245 244 245 245 245
252 252 252 252 252 252 253 253 252 253 253 254 253 254 252 252 251 252 253 251 251 252 252 252 251 252 251 251 251 251 252 252 252 252 250 250 251 252 253 251 251 252 251 251 251 250 250 250 250 250 250 250 250 250 249 247 247 247 246 246 245 244 244 243 244 242 243 242 242 243 243 243 242 243 242 243 245 245 244 244 245 244 245 245 245 246 245
252 253 252 252 252 251 252 253 253 254 253 253 252 253 254 251 251 252 252 252 251 251 252 252 251 251 252 251 251 251 251 252 252 253 253 252 251 251 253 252 251 251 251 251 250 249 249 250 249 249 249 249 249 248 247 246 245 244 243 243 241 242 242 240 241 242 242 242 242 242 242 241 242 242 242 242 242 243 244 246 246 245 244 244 245 245 245
252 252 252 252 251 252 253 252 253 253 252 252 252 251 253 253 252 251 252 252 252 251 251 251 251 251 252 252 251 250 250 250 251 252 252 252 252 251 251 251 250 250 250 249 249 248 248 248 248 248 248 248 248 245 244 242 241 238 241 239 241 239 241 240 240 240 241 241 242 243 244 244 243 242 242 243 243 243 243 243 243 243 244 245 245 245 245
251 251 252 252 251 251 253 251 251 251 252 251 252 252 251 253 252 251 251 252 251 251 251 251 251 251 251 251 252 252 251 250 247 248 252 246 246 249 249 249 249 249 249 248 248 247 248 247 247 247 247 247 245 242 242 241 240 238 238 240 239 239 239 240 239 240 239 241 241 241 239 240 240 241 241 241 242 242 242 242 243 243 243 243 243 243 243
251 251 252 252 252 252 251 252 252 251 251 253 252 251 252 252 251 251 251 251 251 250 250 250 250 251 251 251 251 251 251 251 250 247 250 250 249 248 248 248 247 247 246 246 245 244 245 246 246 246 246 246 243 242 241 240 240 240 240 240 240 241 240 240 240 240 240 240 240 241 241 241 241 240 241 241 242 242 243 242 242 241 242 242 243 244 244
251 251 251 251 251 252 251 250 250 251 252 252 252 252 252 251 249 249 252 250 249 249 250 250 250 250 250 250 250 249 249 248 248 248 247 247 246 245 245 245 245 245 245 245 243 244 245 245 245 245 245 243 242 241 240 241 240 241 240 241 242 241 241 242 243 243 242 242 241 241 242 242 241 242 242 242 241 242 242 242 242 243 245 245 244 243 243
249 249 249 250 250 251 251 251 251 251 251 251 251 251 250 249 249 249 249 249 248 247 247 248 248 248 248 247 245 246 245 244 244 245 245 244 244 244 245 244 244 244 244 244 244 244 243 241 241 242 242 242 242 241 240 240 241 241 242 241 241 241 241 242 241 241 241 241 241 241 241 241 241 241 241 241 241 242 242 242 242 242 241 240 242 241 241
247 247 247 247 247 248 248 248 248 248 249 249 247 248 246 247 247 247 247 248 245 245 245 245 246 247 244 245 246 246 243 244 242 244 244 244 244 243 244 244 244 243 243 243 243 242 242 242 243 243 243 242 242 241 242 243 242 242 242 241 242 242 242 242 242 241 240 242 242 241 242 242 241 241 241 241 241 242 242 241 241 241 242 240 240 241 241
Wind_Speed
12 10 9 5 3 5 5 6 5 8 10 10 16 18 10 4 7 19 16 10 11 17 22 24 18 19 20 19 19 18 14 10 5 4 7 11 13 13 11 12 11 11 12 12 12 12 11 8 9 9 7 7 7 7 6 6 6 8 7 6 6 7 7 9 10 9 8 7 7 7 7 7 8 9 9 9 8 9 9 9 9 10 10 10 10 11 9
7 10 6 3 8 3 2 7 9 7 13 21 19 14 14 17 20 20 17 13 17 21 26 20 20 20 15 15 14 14 15 16 12 8 10 13 15 14 14 13 11 10 12 12 11 10 10 10 10 8 7 7 7 8 7 6 8 8 7 9 8 9 10 12 10 10 10 8 9 9 9 10 11 10 9 9 9 9 10 9 9 9 8 9 10 11 10
8 8 1 1 4 4 7 6 7 14 16 8 11 15 16 16 17 19 24 21 22 25 22 22 25 19 14 14 19 20 16 14 13 10 12 13 14 14 13 11 12 11 11 11 10 10 11 10 10 9 8 8 6 6 6 7 8 6 7 8 9 9 12 11 10 8 8 8 7 9 10 8 7 7 8 6 7 8 8 7 8 7 7 9 9 8 10
8 5 2 2 2 2 3 5 13 18 12 8 11 15 14 13 19 21 12 11 17 25 26 20 12 16 18 20 18 13 12 11 9 9 12 12 13 13 13 12 11 11 12 12 10 10 10 9 8 8 8 7 5 7 7 8 7 6 7 8 9 10 11 6 6 7 7 5 6 8 5 7 6 5 5 6 7 8 7 8 7 5 8 10 9 9 9
6 9 2 1 1 3 4 9 22 22 16 17 12 7 2 16 22 15 9 18 20 24 17 11 8 10 14 11 7 9 12 11 8 10 11 12 12 12 12 13 13 13 12 11 10 10 8 8 8 9 8 6 7 7 7 6 4 7 8 9 9 9 7 6 6 6 6 7 8 8 8 7 6 6 7 8 9 9 11 9 6 9 11 9 10 9 10
2 5 5 0 6 16 16 7 12 15 18 19 18 15 20 23 13 15 17 19 14 12 14 13 18 18 7 5 7 7 8 11 10 9 10 13 13 12 12 12 13 13 11 10 9 8 9 9 8 7 5 7 8 6 6 4 7 7 8 8 9 9 7 8 7 7 8 9 9 9 7 7 7 8 9 12 10 9 7 6 9 10 9 10 9 10 10
3 3 5 10 19 18 1 1 2 8 14 12 15 17 12 16 13 16 18 21 22 24 19 17 17 13 4 3 7 13 13 10 12 15 16 14 13 13 12 12 11 11 11 9 8 9 8 8 7 5 5 5 6 5 4 5 7 8 8 8 9 9 9 9 8 9 9 9 10 8 8 8 8 9 11 10 9 8 8 9 9 10 10 10 10 9 9
1 2 3 4 15 1 3 6 2 2 5 1 2 11 17 19 19 18 19 24 24 23 20 19 17 7 5 5 9 15 20 12 11 12 14 16 13 10 11 9 11 9 8 8 7 9 6 5 6 4 6 3 4 6 4 6 6 7 8 9 10 9 10 10 10 9 10 10 9 7 7 7 8 10 10 10 9 6 6 6 6 6 7 7 9 8 8
6 4 10 18 12 22 17 9 5 5 7 8 10 10 15 17 21 20 23 22 17 17 19 18 12 0 0 4 14 19 12 10 10 15 16 14 13 9 10 7 10 9 6 5 7 5 7 7 6 5 5 4 4 4 4 5 4 5 6 8 10 9 9 7 6 6 7 7 7 7 6 7 9 10 8 7 6 5 6 7 7 8 9 8 7 8 9
8 4 6 6 4 16 11 11 12 16 13 13 9 8 13 4 13 18 14 12 16 16 15 12 3 3 0 6 9 14 2 6 6 10 11 10 9 9 10 7 5 7 6 6 6 4 7 8 5 4 4 3 4 4 4 3 4 5 6 10 6 3 3 1 2 3 4 5 6 6 6 9 10 8 6 5 6 6 8 8 9 9 7 6 7 7 8
4 2 6 9 8 15 5 11 9 7 7 7 6 2 14 4 12 8 8 12 13 13 13 6 8 3 2 8 9 13 9 3 5 6 9 9 9 8 6 5 7 8 7 7 8 4 3 7 7 4 2 2 3 4 3 3 3 5 5 3 3 2 2 2 4 5 6 6 6 7 8 9 8 7 7 7 5 5 7 6 7 4 5 6 6 6 7
6 6 4 15 6 10 3 6 1 1 8 6 7 3 11 9 16 14 8 11 13 12 11 5 7 7 7 10 11 9 11 7 4 6 6 6 5 5 3 3 3 5 6 8 8 5 5 6 5 4 1 1 4 4 4 3 3 4 3 2 3 4 4 4 4 5 5 6 6 7 8 6 5 6 4 4 5 6 6 6 6 6 6 6 7 7 6
7 6 11 8 15 7 4 1 3 5 3 8 8 13 16 4 6 11 9 13 13 10 7 8 8 13 14 12 2 2 1 2 5 4 2 2 1 5 5 4 3 3 4 4 6 5 4 4 5 4 2 1 3 2 1 1 1 2 3 3 2 2 2 2 3 3 3 4 6 6 5 5 4 4 4 5 5 5 6 5 5 6 6 6 7 7 5
10 10 10 18 16 7 12 3 14 10 7 4 13 12 2 9 8 7 9 11 12 9 11 9 12 12 11 11 5 6 5 5 5 6 5 5 3 1 1 2 4 4 3 3 3 4 6 7 6 4 3 2 2 1 3 4 5 5 4 3 1 1 1 1 1 1 2 3 3 4 3 3 3 4 3 4 4 5 5 5 6 7 5 6 6 6 5
4 1 11 6 18 4 22 11 3 2 7 13 10 3 3 5 7 8 7 9 11 7 9 10 11 12 10 7 8 8 7 5 7 5 4 3 4 4 3 4 4 2 2 3 5 6 6 7 6 5 4 4 3 3 7 7 7 5 3 3 3 2 2 2 3 2 2 2 3 2 2 3 3 3 2 3 3 3 5 5 5 6 6 5 5 6 5
10 11 14 15 8 5 12 21 14 13 18 10 5 7 9 6 7 7 8 9 10 8 10 10 8 10 10 9 9 9 8 5 3 1 1 0 1 2 1 1 2 1 2 3 5 7 7 8 8 8 5 5 5 6 7 7 7 6 5 3 3 3 4 4 3 3 3 2 1 1 1 1 1 2 2 3 3 4 4 5 5 5 5 4 4 5 6
11 12 13 11 3 5 10 15 6 16 20 15 7 8 9 8 8 7 6 9 8 9 10 9 8 6 6 10 8 3 6 6 3 2 0 1 2 2 2 3 3 2 3 5 6 8 8 9 9 8 8 6 7 8 7 7 7 7 5 4 5 4 5 4 3 3 3 3 3 3 2 0 1 1 2 1 3 2 3 3 4 5 5 4 5 6 5
12 15 10 4 1 4 10 15 8 5 10 12 8 6 8 7 5 6 8 5 3 4 5 5 7 8 8 6 6 5 5 4 1 1 2 3 3 3 3 4 5 3 4 6 8 8 8 9 8 8 8 8 8 6 7 7 7 7 5 4 5 4 4 4 4 3 4 4 4 2 2 1 0 1 2 2 3 2 3 3 4 5 5 5 5 5 5
6 17 16 11 14 8 8 14 14 10 5 5 6 9 11 10 4 2 4 4 4 4 4 6 8 8 6 5 6 5 5 4 1 1 2 3 4 5 5 5 3 3 4 6 7 7 8 8 7 7 8 7 7 6 7 7 7 6 4 4 4 4 5 5 4 5 5 4 4 4 4 3 3 2 1 0 1 2 2 4 4 4 4 4 4 4 5
12 20 12 4 9 9 6 12 12 12 15 15 11 9 6 5 4 4 6 4 6 3 4 8 8 10 8 5 7 7 5 2 1 2 3 3 4 5 5 5 5 6 8 8 7 7 7 7 6 7 7 7 8 7 7 7 7 5 5 5 5 5 5 4 4 4 4 5 5 4 5 5 5 5 5 4 3 2 2 1 2 3 3 3 4 4 4
16 16 13 7 6 14 15 7 7 11 11 10 11 11 11 9 10 10 9 7 10 7 10 6 5 7 11 6 4 5 1 2 2 3 4 5 5 5 7 7 7 7 6 7 7 7 7 6 6 6 6 7 7 8 8 7 7 5 5 4 4 4 4 5 5 4 4 5 5 5 4 5 5 4 3 3 3 2 3 2 3 2 2 3 1 1 2
18 14 6 4 10 15 16 14 12 13 14 13 13 11 10 9 11 12 11 9 6 6 4 4 4 7 8 3 0 0 2 3 4 4 5 5 6 7 6 6 7 8 8 7 7 7 6 6 6 6 6 7 7 7 7 7 7 6 5 4 5 5 5 5 5 5 5 5 5 5 5 4 3 4 6 8 5 4 2 5 6 6 5 1 1 1 1
19 2 6 12 15 14 13 5 3 5 5 4 5 9 9 8 6 5 5 8 9 3 2 6 3 2 3 2 3 6 5 5 5 6 5 5 5 6 5 6 7 8 7 7 7 8 6 6 6 7 7 8 7 8 8 8 7 6 5 4 5 5 6 6 6 5 5 5 5 4 4 4 4 3 3 5 7 8 6 6 6 6 5 5 3 2 3
13 10 7 5 8 11 3 6 6 8 7 7 5 5 6 6 6 6 4 6 3 4 4 7 7 4 4 4 4 8 7 6 6 7 7 7 7 6 7 7 7 7 7 7 7 7 6 6 7 7 8 9 9 8 9 8 7 7 7 5 5 5 5 5 6 6 5 5 5 6 6 5 6 5 5 5 6 6 8 7 9 9 8 7 6 6 6
11 5 5 4 5 7 3 3 7 7 10 7 5 6 7 6 6 6 7 5 6 5 4 6 6 6 6 6 6 6 6 6 6 7 7 7 7 7 7 7 7 7 7 6 6 6 6 6 7 7 9 9 9 9 9 9 8 8 9 8 7 7 7 6 6 7 7 7 6 6 6 6 6 5 5 5 5 7 7 7 7 8 9 10 11 11 10
7 6 7 5 5 3 6 0 5 14 13 9 5 4 6 5 4 5 7 5 5 6 5 5 5 7 6 6 7 7 9 8 7 6 6 6 6 7 7 7 7 6 6 7 7 7 7 7 7 8 9 9 10 10 9 9 9 9 9 9 8 7 6 6 7 6 6 6 5 5 5 5 5 5 5 5 5 5 6 7 7 7 9 12 13 13 13
8 9 10 7 1 3 10 8 6 8 8 7 6 4 5 4 6 6 5 7 7 7 7 6 6 6 7 7 7 7 8 7 7 8 7 7 8 7 6 7 7 7 7 7 7 8 8 8 8 8 10 10 9 9 10 10 9 9 10 9 7 8 12 8 5 5 5 5 5 5 5 5 5 5 5 5 5 5 5 5 6 7 7 7 10 13 11
9 10 11 2 5 5 8 8 2 4 6 8 8 6 4 4 4 6 7 7 7 7 7 7 6 5 6 5 5 6 7 8 8 7 7 7 6 6 7 7 7 7 7 8 7 8 8 8 8 9 9 10 9 9 10 9 9 8 8 7 6 6 6 7 6 5 5 5 5 5 5 5 4 4 5 5 5 5 4 4 5 5 5 5 4 7 10
10 10 7 4 7 8 8 6 3 7 7 7 7 6 6 4 4 5 6 6 5 5 7 7 6 7 6 6 6 7 7 7 7 8 6 6 5 5 6 7 8 8 8 9 8 8 8 8 9 9 8 10 8 10 10 9 8 8 7 6 5 5 5 5 5 5 5 4 4 5 5 5 5 5 5 5 5 5 5 5 4 4 4 5 6 7 7
11 9 8 7 5 6 5 5 5 7 7 8 8 8 7 5 4 6 5 6 6 6 6 5 6 7 6 6 7 6 6 7 7 7 7 6 6 6 6 5 6 7 8 9 9 8 8 8 9 9 8 9 9 9 9 7 6 7 6 7 6 6 5 6 5 6 6 5 5 6 6 5 5 4 5 5 5 4 5 5 5 4 5 5 5 5 6
10 11 9 5 8 7 6 6 6 6 7 8 7 7 9 7 5 5 6 6 5 6 6 6 6 7 7 7 6 7 8 8 8 8 8 8 8 8 7 6 6 5 6 7 7 7 8 8 7 8 7 7 7 8 8 6 6 6 6 6 5 9 11 10 7 5 4 5 6 6 6 6 5 6 7 6 5 5 5 4 5 4 4 4 4 4 5
11 7 5 8 7 6 6 7 6 6 6 7 7 8 8 6 5 5 5 5 6 6 5 7 7 7 7 7 7 7 8 8 8 8 8 9 9 9 9 9 9 8 7 7 6 7 7 7 7 7 7 7 7 7 7 6 6 6 5 5 5 5 7 10 6 7 5 4 4 4 5 5 6 5 5 5 5 5 5 4 5 4 4 5 5 4 4
9 6 8 11 10 8 5 7 5 5 7 7 6 5 5 5 5 5 5 5 6 6 6 6 6 6 6 6 7 7 7 8 8 8 8 8 8 7 7 7 8 8 7 6 6 6 7 7 6 6 7 7 7 7 7 6 5 5 5 5 4 5 5 6 7 5 5 5 5 5 4 4 4 4 4 4 4 4 4 4 4 4 4 5 4 5 5
6 4 5 5 6 4 8 8 7 4 4 5 5 5 6 6 6 5 5 5 6 6 6 6 6 6 6 7 7 7 6 7 6 6 6 6 6 6 6 6 6 7 7 6 6 6 6 7 6 6 6 6 7 6 6 6 5 5 5 5 5 5 5 5 5 4 4 5 5 4 4 4 4 4 4 4 4 4 4 4 5 5 4 5 4 4 7
6 6 7 5 8 7 7 5 6 6 4 5 6 7 7 7 7 6 7 7 6 6 6 6 6 7 7 8 9 8 8 8 6 5 5 5 6 6 5 6 7 7 8 7 7 6 6 7 6 6 5 6 7 7 7 7 6 5 5 5 5 4 4 4 4 5 4 4 4 4 4 4 3 3 4 3 3 4 4 4 4 4 4 5 5 5 5
8 7 7 7 8 9 8 8 8 8 7 7 7 7 7 7 9 8 8 7 6 6 6 7 7 8 9 9 7 8 7 6 6 5 6 5 5 4 5 7 6 7 6 6 7 6 6 6 10 10 5 5 6 7 7 7 5 5 4 5 4 4 4 4 4 3 4 4 4 4 4 4 4 5 4 3 3 3 4 4 4 4 4 4 5 5 5
8 7 6 7 6 8 9 8 8 7 7 7 8 8 9 10 9 7 7 7 7 7 7 6 8 11 9 8 7 6 7 6 5 5 5 4 3 4 5 5 7 6 4 5 6 7 5 6 10 11 6 5 5 6 7 10 5 5 4 5 4 5 4 5 4 4 4 3 3 4 5 5 4 4 5 4 4 4 4 4 5 5 4 5 5 5 6
8 7 7 7 7 8 10 9 8 9 9 9 10 9 9 9 9 9 8 8 8 8 7 8 8 7 6 6 7 8 6 6 6 5 5 5 3 5 4 4 3 3 4 3 5 5 4 7 10 7 5 5 5 5 6 10 9 5 4 4 4 4 4 4 5 5 5 4 5 4 4 4 5 5 4 4 4 4 5 5 5 5 4 4 4 4 5
10 10 9 7 8 8 7 9 10 8 9 8 8 9 9 8 8 9 9 9 8 8 7 6 6 8 8 8 6 6 7 6 6 6 5 5 3 4 2 2 2 2 1 1 3 3 4 6 6 4 4 5 6 5 7 8 9 4 4 4 4 4 4 4 4 5 5 5 5 5 5 5 4 4 4 4 5 5 5 5 5 5 5 5 5 5 5
9 9 9 9 7 8 8 8 9 9 8 8 8 8 8 9 7 8 8 8 8 9 7 7 8 6 7 8 7 5 6 6 5 6 6 5 3 1 1 1 3 1 2 3 3 2 5 8 6 3 4 5 5 5 5 8 8 5 5 4 5 4 4 4 4 4 4 5 5 5 5 5 5 5 5 5 5 5 5 6 5 6 5 5 6 6 6
8 7 8 8 6 6 5 6 8 8 7 8 8 7 6 6 5 8 8 6 5 7 8 7 6 6 7 5 4 4 5 4 5 6 5 3 3 2 1 4 1 2 1 2 2 3 5 5 4 4 4 5 4 5 5 8 6 4 4 4 4 4 4 4 4 4 5 5 5 5 5 5 6 6 6 5 6 5 6 6 6 5 6 6 6 7 6
6 7 6 7 7 6 5 4 5 6 7 6 6 6 6 6 6 5 5 4 4 5 6 6 6 4 3 4 4 4 4 4 4 5 3 1 2 2 5 4 2 2 3 4 4 3 2 2 4 3 4 5 4 8 10 7 4 4 4 4 4 5 4 4 5 5 5 5 5 5 5 5 5 5 5 6 5 6 6 6 6 5 5 5 6 6 6
6 5 5 4 4 5 4 4 4 3 3 5 5 5 5 4 5 5 5 5 4 4 4 4 3 4 3 2 3 3 3 3 4 6 4 4 4 6 5 4 2 2 5 3 3 3 4 3 3 3 6 7 6 10 10 5 4 4 4 4 5 5 5 5 5 5 5 4 5 5 5 5 6 5 5 6 5 6 6 6 6 7 6 6 6 6 6
6 5 4 5 5 5 4 3 5 5 4 3 4 3 4 4 5 5 4 4 4 4 3 3 4 3 3 3 3 3 2 4 4 4 5 9 5 1 2 2 1 3 5 3 3 3 4 5 4 6 9 10 10 11 6 4 4 4 4 5 5 5 5 5 5 5 5 5 5 5 5 6 5 6 5 6 6 6 6 6 6 6 6 6 6 6 6
5 6 6 6 5 5 4 4 4 4 3 3 2 2 2 3 4 5 3 2 3 3 3 3 3 3 3 2 2 3 3 3 3 3 5 6 7 6 2 3 3 3 4 6 4 5 6 5 6 10 10 11 11 10 6 4 5 4 4 5 5 5 5 4 6 5 6 5 5 5 7 5 6 6 6 6 6 6 6 6 6 6 6 6 6 6 6
5 5 6 5 4 4 4 4 4 3 3 3 3 4 2 1 3 3 4 3 3 3 4 3 4 4 4 4 4 4 5 4 4 4 4 5 6 7 4 5 4 3 7 8 6 6 6 9 11 11 11 10 10 7 5 5 5 5 5 6 5 7 6 5 5 6 6 6 6 6 6 6 6 6 6 6 6 6 6 7 8 6 6 6 6 6 6
5 6 6 4 5 4 5 4 6 3 2 3 3 3 2 2 2 3 3 4 4 4 4 5 4 4 5 4 4 4 5 6 5 4 5 5 5 4 5 5 7 8 8 7 6 7 7 7 7 10 11 12 10 7 6 6 6 4 6 6 6 6 6 6 5 6 6 6 7 7 7 7 6 6 7 6 6 6 6 6 6 6 6 7 6 7 7
6 6 5 6 5 5 4 4 3 3 3 4 4 4 5 3 4 4 4 5 3 4 4 4 4 4 4 4 4 4 3 3 9 11 1 3 2 3 5 6 7 8 10 8 9 8 10 11 11 11 11 11 8 6 6 6 6 5 6 6 6 6 7 6 6 6 6 6 6 6 6 6 6 6 6 6 7 6 6 6 6 6 5 5 6 6 6
5 6 7 6 5 5 4 6 3 3 4 4 3 5 4 4 5 5 5 4 5 5 5 5 6 5 4 5 4 4 4 4 5 8 4 4 7 7 8 7 10 10 8 7 8 8 8 8 10 11 12 9 6 6 6 6 6 7 7 7 7 6 6 7 6 6 6 6 6 6 6 7 7 6 7 6 7 6 7 7 6 5 6 5 6 7 6
5 4 4 4 4 4 3 3 5 5 4 4 5 5 3 3 7 8 3 3 5 5 5 5 4 4 4 4 4 4 4 4 6 7 7 7 6 7 7 8 8 10 11 9 7 9 8 11 11 11 9 7 7 6 6 7 6 7 7 8 7 7 7 8 7 8 8 7 6 6 7 7 6 7 8 6 6 6 6 6 6 7 9 8 7 6 5
4 4 4 5 5 5 5 5 6 6 5 5 5 4 3 4 6 7 5 5 4 6 7 6 6 6 6 5 4 5 5 5 5 6 6 7 6 7 8 7 8 8 9 9 8 9 7 7 7 8 8 7 7 7 6 7 7 7 7 7 7 7 7 8 8 7 7 7 6 7 7 7 7 7 7 6 6 6 7 7 6 6 6 6 6 6 6
6 6 6 6 6 6 6 7 6 6 6 5 5 5 4 5 6 7 7 5 5 6 6 6 10 6 3 5 6 6 5 6 6 6 6 8 7 7 8 8 8 8 8 8 8 8 7 8 7 8 8 8 7 7 6 8 8 7 7 8 6 7 8 8 7 7 6 7 7 7 7 7 6 7 7 6 6 7 6 6 6 6 6 6 6 6 6
Wind_Direction
248 254 249 169 199 218 206 199 186 173 193 176 198 221 216 148 203 249 249 227 237 258 254 258 265 264 266 275 278 281 285 292 269 292 291 286 282 281 277 270 269 269 270 272 276 279 278 279 270 264 257 248 239 243 234 219 202 214 205 204 206 205 208 218 219 214 212 209 210 210 204 203 203 204 202 202 198 197 197 202 201 202 198 194 199 207 207
279 264 255 200 221 254 240 231 232 214 187 209 208 221 223 219 235 243 265 269 264 258 261 264 261 261 264 269 279 284 287 285 292 291 286 281 283 282 279 276 273 269 268 270 271 274 277 273 272 269 262 254 241 235 232 216 217 211 179 203 200 204 210 216 213 208 206 203 202 202 202 204 209 203 203 201 198 201 205 205 204 201 197 199 204 207 203
273 281 3 199 236 210 245 249 248 236 230 222 210 227 236 241 260 261 259 261 268 266 260 262 264 270 278 283 272 272 280 286 284 281 275 275 274 274 275 275 274 272 272 271 273 271 267 268 266 264 256 251 245 236 230 219 219 207 189 203 207 208 218 217 212 205 201 209 201 208 210 210 209 204 206 199 204 211 211 207 208 202 195 206 212 208 209
293 319 53 6 45 96 215 271 254 245 231 225 221 218 218 212 234 242 255 270 257 263 264 257 262 273 267 264 269 277 275 269 266 263 265 265 266 271 274 276 277 278 275 274 270 265 265 262 260 259 259 251 239 239 227 225 214 179 190 205 211 218 225 218 209 205 209 204 210 220 209 216 207 205 198 201 211 213 210 210 207 187 205 213 211 210 212
253 270 81 13 115 13 298 229 231 232 227 223 232 239 189 212 221 236 227 242 238 249 267 305 264 228 252 269 273 272 270 260 247 249 252 256 260 263 269 273 276 273 270 269 268 267 266 259 254 248 241 249 240 236 231 223 165 182 199 206 214 224 223 211 211 203 198 202 212 213 210 203 198 191 200 208 214 210 212 206 184 201 215 210 216 212 211
249 285 313 288 334 275 251 214 207 206 226 224 225 232 223 231 193 218 216 247 271 283 276 255 264 266 262 232 256 228 238 280 275 254 243 256 262 265 263 260 263 269 273 272 269 262 265 269 259 264 231 230 242 229 216 178 183 196 198 212 212 221 209 209 204 197 198 202 212 213 199 195 192 199 203 214 215 211 207 189 201 212 214 215 215 214 214
258 329 354 338 265 259 252 303 270 229 234 239 228 242 246 253 240 247 264 262 259 254 259 263 267 274 331 257 271 275 256 228 248 268 278 269 262 262 265 268 261 255 258 267 275 281 274 265 272 266 263 236 252 241 191 191 197 192 202 208 214 215 212 209 199 200 199 203 211 205 197 194 196 207 212 219 214 209 201 202 204 212 211 214 219 216 216
41 67 99 253 252 176 278 276 154 158 129 133 353 284 252 248 244 232 241 245 249 257 263 269 265 295 288 297 266 257 262 237 221 246 252 261 264 256 251 247 261 260 252 250 262 274 280 279 277 257 262 244 224 243 206 207 198 203 202 210 220 211 215 210 203 200 196 205 209 202 196 195 204 216 218 217 217 204 202 212 215 215 224 217 221 215 215
218 192 201 235 329 316 262 255 205 162 182 171 175 247 258 202 229 226 233 243 251 256 258 255 271 39 26 331 287 272 246 247 210 221 238 245 252 247 257 239 251 261 271 271 267 273 287 286 287 290 272 246 233 234 212 221 203 213 211 226 230 220 222 215 208 200 202 205 208 203 196 199 214 221 219 220 222 189 207 212 214 217 221 219 214 213 216
172 190 281 306 302 256 279 175 217 191 199 186 189 185 282 172 221 228 226 231 241 250 258 263 245 114 15 306 275 281 283 193 211 227 236 251 253 255 261 275 267 281 291 282 271 258 286 295 292 279 264 236 222 227 232 212 203 217 217 235 255 278 274 281 211 199 205 207 211 206 199 211 218 221 216 218 212 188 207 210 218 223 218 223 218 215 216
91 169 209 242 231 257 136 208 222 215 200 126 92 48 259 190 245 233 164 230 233 237 247 255 111 124 249 242 254 269 279 221 194 209 231 237 242 250 257 275 299 301 299 298 295 302 289 299 308 296 260 192 204 233 224 211 216 233 245 296 333 280 252 201 195 196 198 203 211 211 213 219 216 219 213 213 201 190 211 214 227 211 208 219 226 219 219
196 187 206 250 212 258 227 219 273 196 134 97 66 252 266 228 226 239 203 229 241 240 236 170 162 170 237 259 242 237 249 258 198 192 230 241 260 280 307 301 251 280 312 323 312 331 340 321 325 332 303 225 234 234 207 171 201 244 290 284 240 217 207 202 197 196 196 201 215 218 225 228 218 220 207 198 199 196 209 206 219 212 212 216 225 228 214
200 182 256 302 272 222 189 261 204 153 168 107 145 212 246 216 197 228 208 224 235 236 226 159 207 218 212 237 223 219 332 332 282 247 217 258 280 289 311 310 353 342 317 309 305 323 339 345 6 4 5 330 298 315 360 55 3 325 285 263 267 270 235 218 208 208 203 204 221 229 226 228 216 211 197 205 196 197 207 204 210 221 217 219 226 234 215
192 212 223 246 272 246 132 208 157 172 110 184 211 232 144 138 209 223 196 213 229 220 221 202 218 242 233 253 284 279 271 243 264 291 323 326 318 262 280 7 35 5 319 332 360 17 11 10 9 11 14 18 11 52 80 44 353 322 337 340 323 308 296 247 244 227 224 240 236 239 240 220 226 226 214 196 203 199 198 200 214 223 222 220 228 234 221
48 162 234 290 268 184 167 155 84 254 180 230 218 213 243 186 196 208 228 217 238 198 237 228 230 251 268 250 254 260 254 236 250 269 278 281 299 321 344 1 10 357 345 34 43 31 15 18 15 11 35 51 53 55 50 2 336 336 340 359 10 29 28 20 8 355 340 303 274 264 243 223 217 240 210 195 207 187 197 208 215 227 224 224 227 240 234
166 186 205 220 218 135 175 141 183 195 213 213 183 193 244 222 203 204 228 230 225 215 217 240 240 233 250 284 260 258 259 231 235 235 209 117 68 28 43 98 331 295 118 82 67 41 29 25 22 18 30 66 62 58 21 346 339 345 355 357 24 39 33 25 13 12 356 341 325 318 266 230 218 233 229 211 202 202 201 203 217 228 236 219 232 240 238
180 211 223 232 200 184 183 194 201 200 210 220 201 197 219 215 225 220 220 239 233 209 224 241 250 277 243 237 259 274 283 320 344 328 270 107 88 71 61 31 354 11 77 92 82 55 34 29 28 23 20 49 53 39 352 347 346 345 342 357 34 31 22 15 13 351 356 6 4 2 354 359 249 263 257 200 208 236 186 214 215 229 241 210 224 238 235
231 262 248 72 233 221 212 228 229 207 228 236 242 234 251 244 220 184 209 240 251 228 210 221 261 230 246 262 280 276 277 278 290 119 95 67 65 68 55 31 14 32 70 76 76 70 47 32 30 32 26 37 44 6 342 346 341 340 346 22 37 26 17 20 7 1 26 8 13 13 16 33 155 229 214 211 206 217 178 210 220 224 240 218 226 231 239
192 249 239 221 249 237 218 231 244 253 237 241 233 245 245 255 253 239 249 225 238 213 170 204 237 261 249 250 266 273 282 286 262 96 97 71 58 43 41 15 10 40 67 71 64 61 54 28 28 21 33 32 28 356 352 348 345 345 2 33 40 29 23 15 14 19 32 17 7 14 26 33 45 47 51 154 188 207 199 210 224 228 235 228 231 235 234
205 248 248 216 244 268 222 217 236 245 248 251 248 235 252 266 274 243 249 242 266 213 214 229 238 257 266 248 257 270 263 253 90 85 74 78 66 54 49 24 36 63 63 68 63 61 53 26 25 25 25 24 12 2 356 353 348 353 19 30 38 28 19 19 21 18 25 20 28 27 29 40 33 18 18 28 46 32 7 317 251 254 242 237 244 235 245
251 257 266 276 302 280 263 231 230 246 244 246 255 257 252 244 252 256 254 224 239 244 251 255 243 263 267 265 237 255 211 95 84 77 79 69 65 57 47 38 42 56 63 65 60 61 52 30 27 31 26 18 4 6 358 350 350 3 20 27 40 35 23 24 22 15 24 25 24 28 35 50 50 49 41 18 35 33 37 61 24 24 312 316 311 254 219
254 240 214 178 250 256 258 249 237 239 241 235 242 255 261 257 255 253 259 265 251 235 275 286 262 251 272 326 90 112 79 77 81 85 84 77 71 64 63 60 61 64 61 65 62 58 49 35 33 29 23 17 3 359 0 351 354 7 5 23 36 32 26 27 18 18 20 23 22 28 31 32 41 24 49 66 51 73 357 15 35 7 15 81 305 109 193
259 322 199 199 227 251 257 275 215 239 335 338 271 250 264 282 303 331 310 284 288 279 35 24 32 345 339 358 92 87 79 72 66 65 71 73 66 63 57 63 55 60 57 56 60 55 43 35 36 31 25 17 5 359 5 356 0 1 6 31 37 31 25 21 18 16 22 24 18 32 26 31 24 30 345 356 46 49 23 18 12 8 350 343 317 231 198
281 278 272 225 233 256 334 24 32 39 5 11 349 14 19 2 357 349 33 29 356 348 52 35 35 20 46 38 75 101 91 79 76 74 74 73 75 71 64 67 67 64 58 52 52 50 42 42 39 34 30 22 12 356 2 1 6 18 23 41 42 31 27 18 20 24 24 25 23 28 19 23 23 14 10 4 342 19 41 14 358 359 357 353 339 315 286
267 12 22 296 299 302 19 109 90 60 24 15 11 9 5 6 14 27 50 36 32 34 49 41 24 29 52 61 73 87 94 85 79 80 77 74 68 67 65 62 60 60 59 59 55 53 51 46 43 38 36 20 11 3 4 4 10 28 32 38 37 27 26 21 23 24 27 26 24 25 22 21 17 17 24 6 6 342 345 9 13 5 360 360 356 351 341
37 344 314 260 263 358 349 90 70 29 9 10 9 25 6 19 10 41 48 43 39 35 50 52 47 34 50 69 78 88 89 85 82 80 75 69 67 64 58 58 58 61 65 64 61 53 45 43 41 37 36 19 8 359 3 7 17 29 32 34 36 35 26 23 27 24 28 25 25 23 25 27 20 26 16 17 10 358 353 345 357 5 8 6 3 360 347
30 358 347 344 176 76 42 50 305 352 352 356 19 6 18 27 42 64 63 58 50 43 44 43 59 64 60 59 69 72 89 89 76 67 66 65 64 61 64 63 65 69 67 61 52 47 43 39 37 37 35 20 0 355 359 5 18 30 34 32 34 31 32 30 30 27 23 26 24 26 26 22 24 19 16 10 16 17 13 13 357 351 344 346 350 356 353
41 23 32 57 301 333 327 345 352 354 1 357 356 354 354 18 32 45 45 40 41 41 43 36 33 38 60 53 70 72 68 66 68 63 61 57 66 74 69 67 64 62 60 58 53 45 43 40 39 38 32 20 1 3 2 6 19 24 26 30 29 27 25 26 26 27 25 25 23 31 27 17 17 18 18 20 17 13 10 17 7 359 342 343 328 323 347
17 6 350 312 273 294 298 292 359 4 3 356 358 359 7 20 44 57 47 41 36 44 42 31 37 42 52 47 59 74 74 72 69 62 54 45 34 51 80 76 72 67 62 56 48 43 43 43 38 38 27 17 4 7 7 14 25 24 19 20 21 25 24 22 21 23 21 20 24 27 28 25 20 20 18 18 16 14 14 9 7 358 350 329 342 347 351
347 339 318 308 311 342 1 14 16 360 2 358 10 8 14 22 40 45 49 38 43 49 49 45 42 42 47 51 54 63 69 74 71 66 59 46 42 34 50 80 87 75 64 53 44 38 40 43 42 38 25 9 9 9 9 9 20 17 19 18 15 27 23 20 22 21 25 21 19 24 24 24 19 25 14 16 13 15 10 5 1 2 354 346 358 354 351
334 315 307 344 19 3 34 27 24 8 7 3 14 19 14 31 48 45 39 41 37 55 50 58 53 56 52 56 54 62 72 72 72 70 61 57 50 47 41 50 71 52 54 55 49 42 43 42 44 40 23 12 13 11 15 9 22 16 22 26 15 23 28 28 23 24 19 19 18 20 18 20 13 18 11 9 7 9 2 355 355 350 355 351 353 352 343
327 311 8 24 11 8 10 14 28 12 21 8 23 21 13 17 23 34 34 41 45 48 43 54 60 63 72 72 72 72 73 74 71 69 69 64 57 54 53 51 61 69 66 56 50 50 43 42 39 30 17 13 15 17 17 15 19 23 18 16 13 10 14 22 22 20 18 17 18 19 13 15 6 9 10 8 7 358 350 352 342 346 348 351 346 341 335
344 354 8 357 353 351 18 356 23 6 20 30 13 14 4 13 35 34 42 46 48 47 58 56 53 51 52 69 78 81 80 80 74 70 65 64 62 63 63 65 65 62 54 45 44 45 46 40 29 17 18 20 16 18 22 19 20 20 16 14 11 5 15 15 18 19 16 21 21 17 9 12 1 7 7 359 352 347 345 345 340 343 342 336 329 325 328
13 17 356 350 345 332 328 334 344 36 17 36 32 23 11 21 38 44 49 49 56 51 53 51 53 52 50 52 56 63 70 74 57 50 44 61 62 57 59 71 74 73 72 58 39 30 36 34 22 17 11 23 19 18 19 22 24 20 12 15 9 10 10 4 9 16 15 13 13 8 5 9 7 3 1 347 347 341 344 340 338 337 328 325 320 323 331
30 344 18 17 2 360 352 360 354 2 19 32 22 29 24 19 20 39 53 54 47 47 49 48 50 55 57 60 58 51 52 57 52 47 41 49 58 59 54 64 68 70 61 59 53 24 17 27 20 16 16 22 23 15 17 23 20 22 13 14 12 8 4 5 7 12 8 5 355 2 360 1 352 345 344 340 341 333 335 327 330 327 325 322 317 324 327
38 14 22 22 16 16 15 16 24 31 32 34 27 27 26 24 30 26 30 30 43 41 49 56 61 65 59 54 50 46 46 38 39 34 37 42 51 50 53 54 56 54 49 39 41 45 351 12 18 20 17 15 17 9 9 19 18 18 13 11 6 5 7 9 359 6 359 6 3 354 347 342 335 339 333 344 334 339 332 331 324 322 320 311 311 319 317
43 40 16 28 21 29 28 25 21 27 41 46 40 33 27 29 33 23 31 27 29 38 38 48 56 61 60 59 57 50 46 41 30 25 25 28 37 50 53 44 36 46 27 38 7 22 344 10 9 9 9 11 11 2 356 14 17 14 8 11 9 8 5 358 358 356 353 347 350 339 335 337 340 333 337 338 339 330 335 326 319 316 315 310 314 314 316
22 49 37 32 35 36 35 35 32 32 38 46 46 51 43 32 28 35 32 32 26 24 36 43 53 57 64 65 62 56 46 35 26 14 9 22 38 57 30 57 39 29 41 24 11 356 342 1 1 1 354 3 1 350 347 7 14 18 6 8 4 360 359 354 350 343 347 338 344 344 336 338 331 332 325 332 319 320 314 312 308 306 304 306 304 302 302
11 18 34 40 43 43 42 40 41 32 38 44 27 36 40 43 37 46 40 36 29 28 29 36 48 55 48 53 48 43 43 33 19 13 6 9 13 74 63 90 71 48 126 353 13 327 350 358 357 351 357 350 352 342 346 354 1 17 360 2 354 354 349 348 345 337 333 329 338 331 336 330 324 323 318 316 313 312 307 302 299 301 300 298 300 298 294
10 12 5 25 27 38 37 38 41 44 30 36 47 32 17 31 28 43 41 33 19 30 27 26 36 46 29 29 27 25 11 20 13 359 352 353 350 140 109 86 158 69 315 25 358 348 356 359 356 356 350 343 344 338 341 346 348 358 349 350 341 337 330 326 327 319 314 320 319 314 318 315 313 311 310 308 309 305 304 303 302 299 298 294 291 286 289
11 14 1 15 15 28 37 34 31 33 45 31 29 28 26 30 21 39 34 33 1 25 20 33 45 33 27 24 9 343 346 348 14 347 328 346 350 328 19 295 163 87 307 22 352 9 3 3 353 353 336 336 335 336 339 338 337 338 330 331 316 316 306 307 301 303 303 307 306 307 302 305 309 304 299 301 296 293 292 288 288 287 284 286 287 288 285
356 21 8 10 11 22 25 35 38 27 29 36 24 15 21 27 32 30 17 23 25 24 29 25 39 42 9 2 350 337 327 337 357 337 333 334 307 291 316 273 114 108 335 10 344 360 343 351 344 338 325 323 318 324 328 326 321 319 316 313 309 305 300 299 295 296 299 300 297 297 294 293 292 292 293 289 289 288 286 287 286 282 280 278 278 278 280
3 10 6 351 348 8 11 19 34 51 13 19 43 17 4 360 30 18 13 19 13 22 16 8 11 15 356 337 339 322 320 336 347 320 304 282 266 224 226 235 23 4 360 349 328 331 328 331 323 311 313 314 310 314 319 316 317 318 311 303 302 303 302 296 296 294 299 293 291 285 288 286 285 288 294 293 291 293 295 294 289 291 291 288 285 286 281
1 351 351 1 341 333 16 347 13 13 44 338 46 30 9 3 352 11 15 354 357 346 8 333 343 344 345 343 337 322 322 336 330 328 321 317 327 232 172 113 290 321 338 330 322 317 314 316 308 306 308 307 309 312 310 301 307 306 300 295 291 292 294 293 288 287 286 286 286 287 285 290 290 286 287 290 291 292 287 284 282 282 282 283 282 280 281
353 354 346 347 353 351 339 9 347 344 324 352 323 301 37 352 346 333 341 346 326 331 325 314 321 320 319 311 314 291 298 293 297 310 334 319 323 311 118 106 325 313 311 318 307 307 303 302 301 306 303 304 304 305 300 295 288 284 284 286 284 280 279 281 282 283 281 281 282 283 284 281 275 277 273 275 277 282 282 286 285 284 286 288 290 292 293
332 342 353 335 348 347 316 317 323 322 316 327 308 302 249 98 307 325 305 306 288 292 314 309 287 290 294 300 291 284 279 278 257 247 246 246 256 268 328 338 308 299 304 306 301 298 292 295 299 299 298 296 298 294 279 275 272 274 276 277 273 273 271 268 273 273 272 270 271 269 270 271 273 269 264 261 264 269 275 282 285 288 288 288 288 289 289
328 328 320 342 289 298 329 317 300 333 313 285 292 262 294 294 299 283 284 289 273 270 280 287 276 269 287 291 292 311 314 304 286 269 242 243 263 291 308 305 305 304 304 301 294 289 289 291 292 294 296 293 294 281 272 264 265 261 267 263 265 261 263 262 260 260 261 263 263 264 264 264 264 263 268 273 272 273 275 277 278 278 281 282 285 286 289
319 315 305 311 331 288 305 351 318 270 280 249 248 302 277 268 273 284 281 268 262 276 285 268 272 265 259 254 263 262 256 285 303 303 298 118 282 277 284 287 283 291 293 292 285 280 282 282 281 279 280 284 280 267 266 263 266 265 264 263 263 261 260 260 263 260 262 261 261 263 261 262 259 263 262 261 261 262 261 264 266 272 273 273 276 276 276
312 296 293 297 293 298 284 273 285 270 251 266 266 252 285 279 274 278 276 257 271 287 274 279 282 270 257 244 249 248 252 244 240 257 296 331 304 303 292 291 289 289 284 282 281 281 276 272 278 285 285 285 275 270 264 266 265 264 261 258 255 256 254 254 251 252 250 256 252 252 252 255 254 253 255 256 257 258 259 262 261 261 266 268 271 271 274
305 311 294 281 279 273 276 273 260 262 264 262 244 261 270 297 297 264 271 277 275 276 282 272 272 266 267 264 249 252 251 248 258 271 279 281 276 277 278 282 281 285 283 282 284 282 281 283 285 284 284 280 273 268 265 259 258 255 254 253 253 253 247 247 250 246 244 245 246 248 249 251 252 251 251 252 250 251 251 251 254 257 262 265 270 271 272
301 301 290 283 277 274 265 265 263 275 285 273 268 270 257 254 258 275 280 282 290 291 285 289 279 273 276 267 259 261 257 258 259 261 265 268 263 267 270 269 270 268 272 272 271 274 277 272 269 268 267 264 262 259 258 253 253 251 250 248 248 247 250 247 249 249 249 247 252 250 253 254 254 252 252 248 254 254 255 254 257 255 254 251 255 255 258
274 271 276 281 276 273 272 269 269 265 260 268 258 258 253 247 264 281 280 258 240 253 268 286 296 269 230 275 287 279 269 262 262 267 262 264 272 271 268 268 269 268 265 265 267 266 265 263 258 256 256 255 252 252 252 248 251 253 252 250 247 246 246 246 245 246 248 245 245 249 249 248 247 251 252 248 248 250 252 249 250 249 251 252 250 254 260